STARLINK-1147 (45095 NORAD) Tracking and Keplerian Element Data

This shows tracking and keplerian element data for the satellite.

Feedback or suggestion? Click here.




ElementValue
Catalog45095
NameSTARLINK-1147
Epoch Orbit177
Epoch Day52.91667824
Epoch Year2020
RAAN119.514
Inclination52.997
Eccentricity0.0001281
Argument of Perigee40.3104
Mean Anonmoly103.2699
Mean Motion15.73192202
Decay Rate0.0002873
L11 45095U 20006BD 20052.91667824 .00028730 00000-0 20844-3 0 9994
L22 45095 52.9970 119.5140 0001281 40.3104 103.2699 15.73192202 1779

Live tracking and technical data element details for STARLINK-1147 (NORAD 45095). STARLINK-1147 can be tracked NOW for your location showing map with azimuth and elevation plus other details from your city location.

Track the satellite on the map from your city or location and see movement details for azimuth, elevation, latitude, longitude, range, height, and movement on the map or in text.







IsCatalogInMostPopularTable: catalog: 45095, numindb: 4
Update: records affected: 1



GetName: 45095 STARLINK-1147

Hit Count: updated at: Mon, 24 Feb 2020 18:49:28 GMT